Regional Weather Roundup
Issued by NWS Grand Forks, ND

Home | Current Version | Previous Version | Text Only | Print | Product List | Glossary Off
Versions: 1 2 3 4 5 6 7 8 9 10 11 12 13 14 15 16 17 18 19 20 21 22 23 24 25 26 27 28 29 30 31 32 33 34 35 36 37 38 39 40 41 42 43 44 45 46 47 48 49 50

000
ASUS43 KFGF 290110
RWRFGF
PRAIRIE TO PINES  WEATHER ROUNDUP
NATIONAL WEATHER SERVICE EASTERN NORTH DAKOTA/GRAND FORKS ND
700 PM CST WED JAN 28 2015

 **SATELLITE DATA USED TO AUGMENT SKY COVER AT AUTOMATED STATIONS**
 *****  WEATHER ACROSS EASTERN NORTH DAKOTA  *****

CITY           SKY/WX    TMP DP  RH WIND       PRES   REMARKS
GRAND FORKS    FRZ DRZL  31  29  92 NW24      29.93R FOG     WCI  17
GRAND FRKS AFB CLOUDY    30  28  92 N18       29.95R WCI  17
GRAND FRKS NWS   N/A     30 N/A N/A N20         N/A  WCI  18
DEVILS LAKE    CLOUDY    27  23  86 NW21      29.99R WCI  13
FARGO          CLOUDY    34  32  92 N22       29.89R FOG     WCI  22
WAHPETON ARPT  CLOUDY    32  32 100 NW15G22   29.87R WCI  22
$$

 ***** WEATHER ACROSS CENTRAL AND WESTERN NORTH DAKOTA  *****

CITY           SKY/WX    TMP DP  RH WIND       PRES   REMARKS
BISMARCK       CLOUDY    32  28  85 NW23G30   30.09R WCI  19
MINOT          CLOUDY    28  25  88 NW23G30   30.11R WCI  14
JAMESTOWN      CLOUDY    30  27  88 N23G35    29.96R WCI  17
MINOT AFB      CLOUDY    29  28  99 NW25G31   30.10R WCI  14
GARRISON         N/A     30  27  88 NW23G33   30.11R WCI  17
WILLISTON      CLOUDY    34  28  79 NW21G28   30.22R WCI  22
DICKINSON      CLOUDY    33  29  85 NW23G31   30.14R WCI  21
HETTINGER      CLOUDY    33  29  85 NW30G40   30.14R WCI  19
$$

 *****  OTHER AIRPORT OBSERVATIONS IN OUR AREA  *****

CITY           SKY/WX    TMP DP  RH WIND       PRES   REMARKS
WALHALLA         N/A     23  23 100 NW21G29   30.01R WCI   8
GRAFTON AIRPOR NOT AVBL
VALLEY CITY AR FLURRIES  30  30 100 NW23G31   29.93R WCI  17
CANDO          CLOUDY    25  21  86 N22       30.03R WCI  10
CAVALIER APRT  CLOUDY    23  21  93 NW18G28   29.99R WCI   9
GWINNER        CLOUDY    34  34 100 N22       29.91R WCI  22
SHEYENNE NWR     N/A     34  32  92 N13       29.95  WCI  25
ROLLA          MOCLDY    21  21 100 N23G30    30.02R WCI   5
 ***** THE ABOVE OBSERVATIONS ARE NON NWS ARE NOT QUALITY
       CONTROLLED AND MAY MIS-REPORT RAIN FOR SNOW...
$$

  *****  WEATHER ACROSS NORTHERN MINNESOTA  *****

CITY           SKY/WX    TMP DP  RH WIND       PRES   REMARKS
FLAG ISLAND    RAIN      28  28 100 NW9       29.84R WCI  20
WARROAD        CLOUDY    32  28  86 NW8       29.85R FOG     WCI  25
ROSEAU         LGT SNOW  34  28  80 NW13      29.85R WCI  25
HALLOCK        CLOUDY    25  23  93 NW21G28   29.93R WCI  10
THF RVR FALLS  CLOUDY    34  30  86 NW14      29.86R WCI  24
BAUDETTE       CLOUDY    32  30  92 CALM      29.81R FOG
WASKISH        CLOUDY    32  30  93 CALM      29.82R FOG
CROOKSTON      CLOUDY    32  32 100 N28       29.91R FOG     WCI  18
STEPHEN NDAWN    N/A     27  27 100 N21         N/A  WCI  13
GREENBUSH NDAW   N/A     30  30 100 NW20        N/A  WCI  18
$$
  *****  WEATHER ACROSS CENTRAL AND WEST MINNESOTA  *****

CITY           SKY/WX    TMP DP  RH WIND       PRES   REMARKS
FOSSTON        MIX PCPN  30  30 100 NW8       29.84R WCI  23
BEMIDJI        LGT RAIN  31  31  99 CALM      29.81R
PARK RAPIDS    FOG       32  31  96 W3        29.81R VSB 1/2
ELBOW LAKE     FOG       31  31 100 W3        29.84R VSB 1/4
WADENA         FOG       30  28  93 CALM      29.82R VSB 3/4
DETROIT LAKES  CLOUDY    32  32 100 NW8       29.84R FOG     WCI  25
MOORHEAD       CLOUDY    34  34 100 NW13      29.89R FOG     WCI  25
FERGUS FALLS   FOG       32  32 100 W5        29.87R VSB 1/4
MORRIS MN      FOG       32  32 100 CALM      29.83R VSB<1/4
STAPLES        FOG       28  28 100 CALM      29.82R VSB 1
$$
  *****  WEATHER ELSEWHERE ACROSS MINNESOTA  *****

CITY           SKY/WX    TMP DP  RH WIND       PRES   REMARKS
DULUTH         CLOUDY    29  23  78 S3        29.82S HAZE
INTRNTL FALLS  CLOUDY    27  26  96 CALM      29.81S FOG
ELY            CLOUDY    27  23  86 SW3       29.81S
CLOQUET        CLOUDY    28  25  86 CALM      29.82S HAZE
WHEATON        CLOUDY    32  30  93 NW7       29.88R FOG
BRAINERD       CLOUDY    28  27  96 SW3       29.83R FOG
HIBBING        CLOUDY    28  23  81 CALM      29.82R
ALEXANDRIA     FOG       31  30  96 CALM      29.83R VSB 3/4
SAINT CLOUD    CLOUDY    29  28  96 NE3       29.83R FOG
MINNEAPOLIS    FRZ DRZL  31  27  85 E8        29.82R FOG     WCI  23
$$

  *****  WEATHER ACROSS SOUTH DAKOTA  *****

CITY           SKY/WX    TMP DP  RH WIND       PRES   REMARKS
SIOUX FALLS    CLOUDY    36  33  89 N6        29.78R
BROOKINGS      NOT AVBL
WATERTOWN      CLOUDY    37  33  85 NW21G29   29.82R
HURON          CLOUDY    37  33  85 N35G47    29.90R
SISSETON         N/A     34  33  96 N22G35    29.86  WCI  22
ABERDEEN       CLOUDY    35  30  82 N23G39    29.96R WCI  23
MITCHELL       CLOUDY    44  37  76 NW24G41   29.86R
PIERRE         CLOUDY    36  29  75 N20G37    30.02R
MOBRIDGE       CLOUDY    35  29  78 N23G30    30.02R WCI  23
RAPID CITY     PTCLDY    37  30  75 N26G36    30.13R
$$

  *****  SOME WEATHER IN NEARBY STATES *****

CITY           SKY/WX    TMP DP  RH WIND       PRES   REMARKS
GLASGOW MT     MOCLDY    34  28  79 NW6       30.29R
GREAT FALLS MT CLOUDY    37  32  82 E5        30.32R
CHEYENNE WY    CLOUDY    38  32  79 N17G25    30.20R
SCOTTSBLUFF NE PTCLDY    41  35  79 W8        30.14R
OMAHA NE       CLEAR     42  34  73 NW7       29.71R
DES MOINES IA  CLOUDY    47  35  63 E9        29.69F
DAVENPORT IA   CLOUDY    36  29  75 SE18      29.82F
CHICAGO IL     CLOUDY    32  21  64 SE15G24   29.95F WCI  22
EAU CLAIRE WI  CLOUDY    29  23  78 E6        29.84R WCI  23
LA CROSSE WI   CLOUDY    34  23  64 S12       29.83S
$$

  *****  SOME NATIONAL WEATHER *****

CITY           SKY/WX    TMP DP  RH WIND       PRES   REMARKS
LA GUARDIA NY  CLEAR     30   6  36 NW12      30.22R WCI  20
RALEIGH NC     PTCLDY    32  13  45 CALM      30.30R
ATLANTA GA     CLEAR     47  24  40 SE3       30.24S
NEW ORLEANS LA PTCLDY    56  43  61 SE7       30.25R
OKLAHOMA CITY  PTCLDY    66  44  45 SW9       29.90R
ALBUQUERQUE NM MOCLDY    55  28  35 N9        30.19R
SALT LAKE CITY MOCLDY    42  36  79 N7        30.31R
LOS ANGELES CA CLOUDY    65  50  58 CALM      30.07S
BOISE ID       PTCLDY    44  37  76 CALM      30.34R
SEATTLE WA     PTCLDY    49  42  77 NW3       30.37R
$$

*** WEATHER ACROSS MANITOBA...SASKATCHEWAN AND ONTARIO ***
                ***ONTARIO***

CITY           SKY/WX    TMP DP  RH WIND       PRES   REMARKS
GERALDTON      LGT SNOW  25  25 100 E8        29.88F VSB 3/4 WCI  16
THUNDER BAY    CLOUDY    28  27  93 E5        29.84F WCI  23
SIOUX LOOKOUT  LGT SNOW  27  27 100 W6        29.79R WCI  20
TORONTO        PTCLDY    23   3  42 SW6       30.29S WCI  16
BIG TROUT LK   CLOUDY    -8 -13  77 N3        30.15R
PICKLE LAKE    SNOW      14  10  85 NE8       29.89R VSB 1/2 WCI   3
DRYDEN         LGT SNOW  27  27 100 W6        29.80R WCI  20
KENORA         LGT SNOW  27  27 100 NW6       29.83R FOG     WCI  20
$$
                *** MANITOBA***

CITY           SKY/WX    TMP DP  RH WIND       PRES   REMARKS
BRANDON        MOCLDY    23  18  80 NW10      30.08R WCI  12
DAUPHIN        CLOUDY    12   9  85 NE6       30.15R WCI   3
ISLAND LAKE    CLOUDY     0  -8  71 NE8       30.16R WCI -15
PILOT MOUND      N/A     19  18  93 NW10        N/A  WCI   8
THE PAS        FLURRIES   1  -4  78 N9        30.25R WCI -14
THOMPSON       FLURRIES  -8 -15  71 N5        30.27R WCI -19
WINNIPEG       CLOUDY    25  21  86 N20G25    29.99R WCI  11
LYNN LAKE      FLURRIES  -8 -13  77 NW6       30.26R WCI -21
CHURCHILL      CRYSTALS -17 -26  63 W12       30.31S WCI -38
$$
                ***SASKATCHEWAN***

CITY           SKY/WX    TMP DP  RH WIND       PRES   REMARKS
ESTEVAN        FLURRIES  28  28 100 NW18G25   30.17R WCI  16
KINDERSLEY     PTCLDY    18  14  86 NW5       30.32R WCI  11
LLOYDMINSTER   PTCLDY     9   5  85 NW10      30.32R WCI  -6
PRINCE ALBERT  FLURRIES  12   7  79 NW12      30.31R WCI  -2
REGINA         CLOUDY    27  23  86 NW23G30   30.22R WCI  12
YORKTON        CLOUDY    18  14  86 NW20      30.17R WCI   1
N. BATTLEFORD  CLEAR     14  10  85 NW14      30.35R WCI  -1
LA RONGE       FLURRIES   5   0  78 NW16      30.33R WCI -14
SASKATOON      CLOUDY    21  16  79 N14G20    30.31R WCI   8
SWIFT CURRENT  PTCLDY    28  25  86 NW14G21   30.26R WCI  17
$$
NOTE: THESE ARE AUTOMATED STATIONS WITH LIMITED QUALITY CONTROL
      "FAIR" INDICATES FEW OR NO CLOUDS BELOW 12,000 FEET WITH NO
      SIGNIFICANT WEATHER AND/OR OBSTRUCTIONS TO VISIBILITY.
      SKY/WX - SKY CONDITION AND SIGNIFICANT WEATHER.
      TMP - AIR TEMPERATURE.    DP   - DEWPOINT TEMPERATURE.
      RH  - RELATIVE HUMIDITY.  PRES - PRESSURE.
      HX  - HEAT INDEX.         WCI  - WIND CHILL INDEX.
$



USA.gov is the U.S. government's official web portal to all federal, state and local government web resources and services.